636  
ASUS42 KRAH 031110  
RWRRAH  
NORTH CAROLINA WEATHER ROUNDUP  
NATIONAL WEATHER SERVICE RALEIGH NC  
600 AM EST SUN MAR 03 2024  
 
NOTE: "FAIR" INDICATES FEW OR NO CLOUDS BELOW 12,000 FEET WITH NO  
SIGNIFICANT WEATHER AND/OR S TO VISIBILITY
.  
 
NCZ001-053-055-056-065-067-031200-  
WESTERN NORTH CAROLINA  
 
CITY SKY/WX TMP DP RH WIND PRES REMARKS
 
ASHEVILLE CLOUDY 44 44 100 CALM 30.17R FOG  
JEFFERSON FOG 43 43 99 CALM 30.17R VSB 1/4  
MORGANTON FOG 49 49 99 CALM 30.16R VSB 1/4  
HICKORY FOG 47 47 100 NW3 30.15R VSB 1/4  
WILKESBORO FOG 45 45 100 CALM 30.20R VSB<1/4  
RUTHERFORDTON FOG 50 50 100 CALM 30.16R VSB 1/4  
MOUNT AIRY CLEAR 50 49 99 CALM 30.17S  
BOONE FOG 41 41 100 CALM 30.00R VSB 1/4  

 
 
NCZ021-022-025-041-071-084-088-031200-  
CENTRAL NORTH CAROLINA  
 
CITY SKY/WX TMP DP RH WIND PRES REMARKS
 
CHARLOTTE FOG 51 50 96 SW3 30.16R VSB 1/8  
GREENSBORO FOG 49 48 97 CALM 30.15R VSB 1/2  
WINSTON-SALEM FOG 52 50 93 CALM 30.17R VSB 1/2  
RALEIGH-DURHAM MOCLDY 54 51 90 E5 30.18R  
FORT BRAGG FOG 54 54 100 CALM 30.15R VSB 1/8  
FAYETTEVILLE FOG 53 52 96 CALM 30.16R VSB 1/4  
BURLINGTON FOG 47 47 100 E3 30.16R VSB 3/4  
ROXBORO PTCLDY 46 45 93 CALM 30.21R  
HENDERSON CLOUDY 49 49 99 SE5 30.20R  
LOUISBURG CLEAR 48 48 100 E3 30.21R  
LAURINBURG FOG 48 48 100 S3 30.18R VSB 1/4  

 
 
NCZ011-015-027-028-043-044-047-080-103-031200-  
NORTHEASTERN NORTH CAROLINA  
 
CITY SKY/WX TMP DP RH WIND PRES REMARKS
 
ROCKY MT-WILSO MOCLDY 53 49 86 N7 30.19R  
GREENVILLE CLOUDY 54 54 100 NE8 30.18F  
WASHINGTON CLOUDY 53 51 95 CALM 30.20S  
ELIZABETH CITY CLEAR 49 47 93 E7 30.21R  
MANTEO PTCLDY 49 47 93 E9 30.21R  
CAPE HATTERAS CLOUDY 55 55 100 VRB6 30.19R  

 
 
NCZ078-087-090-091-093-098-101-031200-  
SOUTHEASTERN NORTH CAROLINA  
 
CITY SKY/WX TMP DP RH WIND PRES REMARKS
 
LUMBERTON FOG 51 51 100 CALM 30.16R VSB 1/4  
GOLDSBORO CLOUDY 57 54 91 CALM 30.16R  
KINSTON CLOUDY 55 54 99 CALM 30.19R  
KENANSVILLE FOG 52 N/A N/A CALM 30.18S VSB 1/2  
NEW BERN CLOUDY 57 57 100 E8 30.19R FOG  
CHERRY POINT CLOUDY 56 56 100 E8 30.19R FOG  
BEAUFORT CLOUDY 58 57 97 NE6 30.17R  
JACKSONVILLE FOG 54 54 100 CALM 30.17R VSB 1/2  
WILMINGTON FOG 57 54 89 CALM 30.15F VSB 1/2  

 
 
 
 
CLICK HERE TO GO TO PREVIOUS BULLETINS.

The Nexlab NC Page Main Text Page